[Iaude] MPEC M49: 2019 GA185 [a=44.76,e=0.06,i=3.5,H=6.78]

mpec at cfa.harvard.edu mpec at cfa.harvard.edu
Tue Jun 25 21:43:43 EDT 2024


M.P.E.C. 2024-M49                                 Issued 2024 June 26, 01:41 UT

     The Minor Planet Electronic Circulars contain information on unusual
         minor planets, routine data on comets and natural satellites,
         and occasional editorial announcements.  They are published
    on behalf of Division F of the International Astronomical Union by the
          Minor Planet Center, Smithsonian Astrophysical Observatory,
                          Cambridge, MA 02138, U.S.A.
			  
             Prepared using the Tamkin Foundation Computer Network

                              MPC at CFA.HARVARD.EDU
            URL https://www.minorplanetcenter.net/    ISSN 1523-6714

                                   2019 GA185                                   


Additional Observations:
     K19GI5A @C2004 03 15.96620911 12 27.81 +08 48 54.6                WEM049950
     K19GI5A &C2013 04 03.20256711 47 56.90 +05 08 07.9          22.5 zWEM049W84
     K19GI5A &C2013 04 03.21754711 47 56.85 +05 08 08.4          22.4 zWEM049W84
     K19GI5A 1C2018 02 11.64320312 11 19.68 +02 35 58.0                WEM049T09
     K19GI5A &C2018 02 22.34104112 10 45.76 +02 40 09.6          22.7 rWEM049W84
     K19GI5A 1C2018 04 22.37005712 06 59.93 +03 04 32.6                WEM049T09
     K19GI5A 1C2019 02 05.58707812 15 37.30 +02 07 32.8                WEM049T09

Observer details:
950 La Palma.  Observer .  Measurer S. Deen.  2.5-m Isaac Newton Telescope +
    CCD.
T09 Subaru Telescope, Maunakea.  Observer .  Measurer S. Deen.  8.3-m Subaru
    Telescope + CCD.
W84 Cerro Tololo-DECam.  Observers S. Sheppard, E. Savary, A. Prakash, S.
    Gontcho A Gontcho, A. Dey, R. Blum, B. Nord.  Measurer S. Deen.  4.0-m
    reflector + CCD.

Orbital elements:
2019 GA185                                                                      
Epoch 2024 Mar. 31.0 TT = JDT 2460400.5                 Alexandersen            
M 193.89692              (2000.0)            P               Q                  
n   0.00329151     Peri.  265.08269     +0.99438265     +0.08700716             
a  44.7581735      Node    89.91689     -0.05608090     +0.91604552             
e   0.0583685      Incl.    3.45551     -0.08976674     +0.39152314             
P 299              H    6.78          G   0.15           U   4                  
Residuals in seconds of arc
040315 950  0.1+  0.1+    190205 T09  0.0   0.1+    190404 T09  0.1-  0.2+
130403 W84  0.2-  0.2-    190303 T09  0.1-  0.0     190404 T09  0.0   0.1+
130403 W84  0.0   0.0     190303 T09  0.0   0.0     190404 T09  0.3-  0.1-
180211 T09  0.0   0.2-    190303 T09  0.2+  0.1-    190405 T09  0.2+  0.1-
180222 W84  0.2+  0.1-    190303 T09  0.3-  0.1+    190405 T09  0.2+  0.0
180422 T09  0.0   0.0     190404 T09  0.1+  0.1+    190405 T09  0.0   0.1-

Ephemeris:
2019 GA185               a,e,i = 44.76, 0.06, 3                  q = 42.1457
Date    TT    R. A. (2000) Decl.     Delta      r    Elong.  Phase     V
2024 05 27    12 29 25.2 +00 35 32  46.7768 47.3004   120.6     1.1    23.7
...
2024 06 11    12 29 05.7 +00 36 30  47.0072 47.3000   106.2     1.2    23.7
...
2024 06 19    12 29 02.0 +00 36 16  47.1383 47.2997    98.5     1.2    23.7
...
2024 06 25    12 29 02.4 +00 35 44  47.2386 47.2995    92.8     1.2    23.7
2024 06 26    12 29 02.7 +00 35 37  47.2554 47.2995    91.9     1.2    23.7
2024 06 27    12 29 03.1 +00 35 29  47.2721 47.2994    90.9     1.2    23.7
...
2024 07 03    12 29 07.2 +00 34 34  47.3729 47.2993    85.2     1.2    23.7
...
2024 07 11    12 29 16.8 +00 32 54  47.5057 47.2990    77.7     1.2    23.7
...
2024 07 26    12 29 47.4 +00 28 28  47.7425 47.2985    63.5     1.1    23.7

M. P. C. Staff               (C) Copyright 2024 MPC           M.P.E.C. 2024-M49





More information about the Iaude mailing list